Home > Weather > Vila Nova de Gaia > Past weeks

Flag for Portugal Weather for the Past 2 Weeks in Vila Nova de Gaia, Portugal

Now
57 °F

Sunny.


Feels Like: 55 °F
Forecast: 48 / 64 °F
Wind: 12 mph from Northwest

Location: Porto / Pedras Rubras

Current Time: Apr 29, 2016 at 9:14:38 PM

Latest Report: Apr 29, 2016 at 8:30 PM


Visibility: 10 mi

Pressure: 30.04 "Hg

Humidity: 77%

Dew Point: 50 °F

Location of Vila Nova de GaiaLocation

Historic Weather in Vila Nova de Gaia — Graph

°F

Vila Nova de Gaia Temperature Yesterday

Maximum temperature yesterday: 63 °F (at 1:00 PM)
Minimum temperature yesterday: 46 °F (at 7:00 AM)
Average temperature yesterday: 57 °F

High & Low Weather Summary for the Past Weeks

 TemperatureHumidityPressure
High70 °F (Apr 19, 3:00 PM)100% (Apr 15, 1:00 AM)30.15 "Hg (Apr 15, 1:00 AM)
Low45 °F (Apr 18, 2:30 AM)46% (Apr 25, 12:00 PM)29.65 "Hg (Apr 16, 6:30 AM)
Average58 °F81%29.95 "Hg
* Reported Apr 14 8:00 PM — Apr 29 8:00 PM, Vila Nova de Gaia, Weather by CustomWeather, © 2016

Note: Actual official high and low records may vary slightly from our data, if they occured in-between our weather recording intervals... More about our weather records

Advertising

Vila Nova de Gaia Weather History for the Previous 24 Hours

Scroll right to see more
 ConditionsComfort  
Time TempWeatherWind HumidityBarometerVisibility
8:00 PM
Fri, Apr 29
59 °FSunny.12 mph72%30.04 "Hg10 mi
7:30 PM59 °FSunny.13 mph77%30.01 "Hg10 mi
7:00 PM61 °FSunny.13 mph72%30.01 "Hg10 mi
6:30 PM63 °FSunny.12 mph68%30.01 "Hg10 mi
6:00 PM63 °FSunny.12 mph64%30.01 "Hg10 mi
5:30 PM63 °FSunny.14 mph68%30.01 "Hg10 mi
5:00 PM63 °FSunny.12 mph59%30.01 "Hg10 mi
4:30 PM64 °FPassing clouds.12 mph56%30.01 "HgN/A
4:00 PM64 °FPassing clouds.10 mph56%30.01 "HgN/A
3:30 PM64 °FPassing clouds.10 mph60%30.01 "HgN/A
3:00 PM64 °FSunny.13 mph60%30.01 "Hg10 mi
2:30 PM64 °FPassing clouds.10 mph60%30.01 "HgN/A
2:00 PM64 °FPassing clouds.8 mph64%29.98 "HgN/A
1:30 PM63 °FPassing clouds.12 mph64%30.01 "HgN/A
1:00 PM64 °FSunny.8 mph64%30.01 "Hg10 mi
12:30 PM64 °FPassing clouds.8 mph64%30.01 "HgN/A
12:00 PM64 °FPassing clouds.7 mph60%30.01 "HgN/A
11:30 AM66 °FSunny.5 mph56%29.98 "Hg10 mi
11:00 AM66 °FPassing clouds.6 mph49%29.98 "HgN/A
10:30 AM66 °FPassing clouds.8 mph52%29.98 "HgN/A
10:00 AM63 °FPassing clouds.6 mph59%29.98 "HgN/A
9:30 AM59 °FSunny.2 mph72%29.98 "Hg10 mi
9:00 AM55 °FPassing clouds.3 mph77%29.98 "HgN/A
8:30 AM55 °FPassing clouds.3 mph77%29.98 "HgN/A
8:00 AM50 °FPassing clouds.No wind94%29.98 "HgN/A
7:30 AM48 °FPassing clouds.2 mph87%29.98 "HgN/A
7:00 AM46 °FPassing clouds.3 mph87%29.95 "HgN/A
6:00 AM46 °FPassing clouds.No wind93%29.95 "HgN/A
5:30 AM46 °FClear.No wind87%29.95 "Hg10 mi
5:00 AM46 °FClear.2 mph87%29.95 "Hg10 mi
4:30 AM48 °FClear.2 mph87%29.95 "Hg10 mi
3:30 AM46 °FClear.2 mph93%29.95 "Hg10 mi
3:00 AM48 °FClear.No wind87%29.95 "Hg10 mi
2:30 AM48 °FClear.No wind87%29.95 "Hg10 mi
2:00 AM50 °FClear.3 mph82%29.95 "Hg10 mi
1:30 AM48 °FClear.No wind87%29.98 "Hg10 mi
1:00 AM50 °FClear.2 mph88%29.98 "Hg10 mi
12:30 AM54 °FClear.5 mph77%29.98 "Hg10 mi
12:00 AM54 °FClear.3 mph82%29.98 "Hg10 mi
11:30 PM
Thu, Apr 28
52 °FClear.3 mph94%29.98 "Hg10 mi
11:00 PM52 °FClear.No wind94%29.98 "Hg10 mi
10:30 PM52 °FClear.2 mph88%29.98 "Hg10 mi
10:00 PM55 °FClear.1 mph82%29.98 "Hg10 mi
9:30 PM54 °FClear.1 mph77%29.95 "Hg10 mi
9:00 PM55 °FSunny.3 mph77%29.95 "Hg10 mi
Weather by CustomWeather, © 2016

See weather overviewHow to use our weather pages